Weather History for Peachtree City, GA

Change the Weather History Date:

Sunday, March 16, 2014

  Actual Average Record
Temperature  
Mean Temperature 57 °F 53 °F  
Max Temperature 61 °F 67 °F 84 °F (2012)
Min Temperature 52 °F 40 °F 28 °F (1999)
Degree Days  
Heating Degree Days 8 12  
Month to date heating degree days 222 218  
Since 1 July heating degree days 2752 2600  
Cooling Degree Days 0 0  
Month to date cooling degree days 0 0  
Year to date cooling degree days 0 0  
Growing Degree Days 6 (Base 50)    
Moisture  
Dew Point 54 °F    
Average Humidity 92    
Maximum Humidity 100    
Minimum Humidity 83    
Precipitation  
Precipitation 1.47 in 0.17 in 1.47 in (2014)
Month to date precipitation 2.40 2.76  
Year to date precipitation 8.74 11.86  
Sea Level Pressure  
Sea Level Pressure 29.80 in    
Wind  
Wind Speed 6 mph (SE)    
Max Wind Speed 21 mph    
Max Gust Speed 29 mph    
Visibility 6 miles    
Events Rain    
T = Trace of Precipitation, MM = Missing Value Source: NWS Daily Summary

Daily Weather History Graph

Daily Weather History Graph

Search for Another Location

Airport:

Trip Planner

Search our weather history database for the weather conditions in past years. The results will help you decide how hot, cold, wet, or windy it might be!

Date:

Astronomy

Mar. 16, 2014 Rise Set
Actual Time 7:47 AM EDT 7:46 PM EDT
Civil Twilight 7:22 AM EDT 8:11 PM EDT
Nautical Twilight 6:53 AM EDT 8:40 PM EDT
Astronomical Twilight 6:24 AM EDT 9:09 PM EDT
Moon 8:01 PM EDT (3/16) 7:31 AM EDT (3/16)
Length of Visible Light 12h 49m
Length of Day
11h 59m
Full, 100% of the Moon is Illuminated
Mar 16
Full
Mar 16
Full
Mar 23
Last Quarter
Mar 30
New
Apr 7
First Quarter

Hourly Weather History & Observations

Time (EDT) Temp. Dew Point Humidity Pressure Visibility Wind Dir Wind Speed Gust Speed Precip Events Conditions
12:53 AM 53.1 °F 48.9 °F 86% 30.01 in 10.0 mi Calm Calm - N/A   Overcast
1:53 AM 53.1 °F 50.0 °F 89% 29.99 in 9.0 mi Calm Calm - N/A   Overcast
2:53 AM 53.1 °F 51.1 °F 93% 29.97 in 6.0 mi Calm Calm - 0.01 in Rain Light Rain
3:11 AM 53.1 °F 51.1 °F 93% 29.97 in 2.5 mi Calm Calm - 0.02 in Rain Light Rain
3:42 AM 53.1 °F 51.1 °F 93% 29.95 in 3.0 mi Calm Calm - 0.06 in Rain Rain
3:53 AM 52.0 °F 51.1 °F 97% 29.95 in 2.0 mi Calm Calm - 0.09 in Rain Rain
4:43 AM 53.1 °F 52.0 °F 96% 29.91 in 3.0 mi SE 4.6 mph - 0.12 in Rain Light Rain
4:53 AM 53.1 °F 52.0 °F 96% 29.91 in 4.0 mi ESE 4.6 mph - 0.14 in Rain Light Rain
5:50 AM 53.6 °F 51.8 °F 94% 29.89 in 2.0 mi Calm Calm - 0.11 in Rain Rain
5:53 AM 53.1 °F 52.0 °F 96% 29.88 in 2.0 mi East 3.5 mph - 0.13 in Rain Rain
6:20 AM 53.1 °F 52.0 °F 96% 29.85 in 4.0 mi East 8.1 mph - 0.08 in Rain Light Rain
6:53 AM 54.0 °F 52.0 °F 93% 29.86 in 4.0 mi ESE 5.8 mph - 0.11 in Rain Light Rain
7:08 AM 54.0 °F 52.0 °F 93% 29.86 in 2.5 mi ESE 9.2 mph - 0.04 in Rain Rain
7:32 AM 53.1 °F 52.0 °F 96% 29.83 in 4.0 mi ESE 10.4 mph - 0.08 in Rain Light Rain
7:53 AM 54.0 °F 52.0 °F 93% 29.86 in 3.0 mi SE 9.2 mph - 0.12 in Rain Rain
8:01 AM 54.0 °F 52.0 °F 93% 29.84 in 2.5 mi ESE 9.2 mph - 0.04 in Rain Heavy Rain
8:14 AM 54.0 °F 53.1 °F 97% 29.84 in 3.0 mi SE 9.2 mph - 0.07 in Rain Light Rain
8:53 AM 54.0 °F 52.0 °F 93% 29.83 in 3.0 mi ESE 10.4 mph - 0.17 in Rain Rain
9:00 AM 54.0 °F 52.0 °F 93% 29.83 in 3.0 mi ESE 9.2 mph - 0.03 in Rain Rain
9:10 AM 54.0 °F 52.0 °F 93% 29.84 in 2.5 mi ESE 6.9 mph - 0.08 in Rain Rain
9:20 AM 54.0 °F 52.0 °F 93% 29.82 in 1.5 mi ESE 9.2 mph - 0.15 in Rain Heavy Rain
9:29 AM 54.0 °F 52.0 °F 93% 29.83 in 2.5 mi ESE 8.1 mph - 0.19 in Rain Rain
9:53 AM 54.0 °F 52.0 °F 93% 29.84 in 1.5 mi SE 6.9 mph - 0.33 in Rain Heavy Rain
10:04 AM 54.0 °F 52.0 °F 93% 29.82 in 1.2 mi ESE 8.1 mph - 0.08 in Rain Heavy Rain
10:21 AM 54.0 °F 52.0 °F 93% 29.84 in 1.0 mi ESE 8.1 mph - 0.19 in Rain Heavy Rain
10:32 AM 54.0 °F 53.1 °F 97% 29.84 in 1.0 mi Variable 4.6 mph - 0.26 in Rain Heavy Rain
10:50 AM 53.6 °F 51.8 °F 94% 29.77 in 2.0 mi SE 18.4 mph - 0.32 in Rain Rain
10:53 AM 53.1 °F 52.0 °F 96% 29.76 in 2.0 mi SE 19.6 mph 26.5 mph 0.33 in Rain Rain
11:00 AM 53.1 °F 52.0 °F 96% 29.75 in 2.5 mi SE 15.0 mph 29.9 mph 0.01 in Rain Rain
11:11 AM 54.0 °F 52.0 °F 93% 29.79 in 4.0 mi SE 10.4 mph 25.3 mph 0.02 in Rain Light Rain
11:39 AM 54.0 °F 53.1 °F 97% 29.77 in 6.0 mi SE 9.2 mph - 0.04 in Rain Light Rain
11:53 AM 55.0 °F 53.1 °F 93% 29.75 in 10.0 mi ESE 15.0 mph 19.6 mph 0.04 in Rain Light Rain
12:13 PM 55.0 °F 53.1 °F 93% 29.76 in 10.0 mi SE 10.4 mph - 0.00 in   Mostly Cloudy
12:53 PM 55.9 °F 54.0 °F 93% 29.73 in 10.0 mi SE 10.4 mph - 0.00 in   Overcast
1:53 PM 57.9 °F 55.0 °F 90% 29.70 in 10.0 mi SE 6.9 mph - N/A   Overcast
2:53 PM 57.9 °F 55.0 °F 90% 29.70 in 10.0 mi Calm Calm - N/A   Overcast
3:03 PM 57.9 °F 55.0 °F 90% 29.70 in 10.0 mi Variable 4.6 mph - N/A   Overcast
3:53 PM 60.1 °F 55.9 °F 86% 29.68 in 10.0 mi Variable 3.5 mph - N/A   Overcast
4:53 PM 60.1 °F 55.9 °F 86% 29.67 in 10.0 mi Variable 3.5 mph - N/A   Overcast
5:19 PM 60.1 °F 55.9 °F 86% 29.66 in 10.0 mi SSE 6.9 mph - N/A   Overcast
5:53 PM 60.1 °F 57.0 °F 90% 29.66 in 10.0 mi Calm Calm - N/A   Overcast
6:53 PM 60.1 °F 57.9 °F 93% 29.66 in 10.0 mi Calm Calm - N/A   Overcast
7:53 PM 60.1 °F 57.9 °F 93% 29.70 in 10.0 mi South 3.5 mph - 0.00 in   Overcast
8:35 PM 60.1 °F 57.9 °F 93% 29.71 in 10.0 mi East 3.5 mph - N/A   Overcast
8:53 PM 60.1 °F 59.0 °F 96% 29.71 in 10.0 mi Calm Calm - N/A   Overcast
9:22 PM 60.1 °F 59.0 °F 96% 29.72 in 10.0 mi Calm Calm - N/A   Mostly Cloudy
9:39 PM 60.1 °F 57.9 °F 93% 29.72 in 10.0 mi SE 6.9 mph - N/A   Mostly Cloudy
9:53 PM 59.0 °F 57.9 °F 96% 29.72 in 9.0 mi ESE 4.6 mph - N/A   Mostly Cloudy
10:53 PM 61.0 °F 59.0 °F 93% 29.71 in 10.0 mi South 6.9 mph - N/A   Mostly Cloudy
11:20 PM 60.1 °F 57.9 °F 93% 29.71 in 10.0 mi South 5.8 mph - N/A   Scattered Clouds
11:36 PM 61.0 °F 57.9 °F 90% 29.71 in 10.0 mi Variable 3.5 mph - N/A   Mostly Cloudy
11:53 PM 61.0 °F 57.9 °F 90% 29.71 in 10.0 mi SSE 3.5 mph - N/A   Overcast